Regional Weather Roundup
Issued by NWS

Home | Current Version | Previous Version | Text Only | Print | Product List | Glossary On
Versions: 1 2 3 4 5 6 7 8 9 10 11 12 13 14 15 16 17 18 19 20 21 22 23 24 25 26 27 28 29 30 31 32 33 34 35 36 37 38 39 40 41 42 43 44 45 46 47 48 49 50
000
ASUS43 KDTX 240410
RWRMI
MICHIGAN HOURLY REGIONAL WEATHER ROUNDUP
NATIONAL WEATHER SERVICE DETROIT/PONTIAC MI
1200 AM EDT THU AUG 24 2017

NOTE: "FAIR" INDICATES FEW OR NO CLOUDS BELOW 12,000 FEET WITH NO
SIGNIFICANT WEATHER AND/OR OBSTRUCTION TO VISIBILITY.

MIZ047>049-052>055-059>063-066>070-074>076-081>083-240500-
SOUTHEAST LOWER MICHIGAN

CITY           SKY/WX    TMP DP  RH WIND       PRES   REMARKS
ADRIAN         CLEAR     60  51  72 N7        30.01R
ALMA           CLEAR     50  48  92 CALM      30.04R
ANN ARBOR      CLEAR     63  51  65 NW6       30.00R
BAD AXE        CLEAR     55  53  92 CALM      30.01S
CARO           CLEAR     51  47  87 NW3       30.01R
DETROIT CITY   PTCLDY    64  51  62 N6        29.99R
DETROIT        PTCLDY    65  51  60 N10       30.00R
FLINT          CLEAR     57  47  69 N7        30.01S
GROSSE ILE     CLOUDY    67  52  59 N8        29.98R
HILLSDALE      CLEAR     55  50  82 NW5       30.02R
HOWELL         CLEAR     58  50  75 NW3       30.02R

CITY           SKY/WX    TMP DP  RH WIND       PRES   REMARKS
JACKSON        CLEAR     57  50  77 CALM      30.02S
LAMBERTVILLE   CLEAR     59  53  80 W3        29.99R
LANSING        CLEAR     55  48  77 NW6       30.03S
LAPEER         FAIR      58  48  69 CALM      30.01S
MASON          CLEAR     60  49  68 CALM      30.03R
MONROE         CLEAR     60  54  79 NW3       29.98R
MT. CLEMENS    CLEAR     60  53  78 N6        29.97S
PONTIAC        PTCLDY    60  50  69 N7        29.99S
PORT HOPE        N/A     62  51  67 NW9G18    29.99R
PORT HURON     CLEAR     55  54  94 CALM      29.99S FOG
TRI CITIES     CLEAR     56  49  77 N5        30.04R
MIDLAND        FAIR      50  48  94 CALM      30.03R
TROY           CLEAR     63  47  56 N5        30.01S
SAGINAW HB     CLEAR     54  46  76 NW7       30.02R
$$
MIZ043>046-050>051-056>058-064>065-071>073-077>080-240500-
SOUTHWEST LOWER MICHIGAN

CITY           SKY/WX    TMP DP  RH WIND       PRES   REMARKS
BATTLE CREEK   CLEAR     57  52  83 CALM      30.04R
BENTON HARBOR  CLEAR     54  52  93 E3        30.03S
BIG RAPIDS     CLEAR     48  45  90 CALM      30.04S
COLDWATER      CLEAR     55  51  85 CALM      30.03R
FREMONT        FAIR      52  51  98 CALM      30.04R
HOLLAND        CLEAR     55  51  86 CALM      30.04S
GRAND RAPIDS   CLEAR     57  50  77 N6        30.03S
IONIA          FAIR      55  48  77 NW3       30.03S
KALAMAZOO      CLEAR     58  50  75 CALM      30.04S
LUDINGTON      CLEAR     49  48  97 CALM      30.04S
MARSHALL       CLEAR     55  51  86 CALM      30.03R
MOUNT PLEASANT CLEAR     53  50  88 CALM      30.03R
MUSKEGON       PTCLDY    56  51  84 CALM      30.04R
SOUTH HAVEN    CLEAR     55  53  94 CALM      30.04R
$$
MIZ016>042-240500-
NORTHERN LOWER MICHIGAN

CITY           SKY/WX    TMP DP  RH WIND       PRES   REMARKS
ALPENA         CLEAR     55  50  83 NW6       30.01S
BEAVER ISLAND  CLEAR     53  44  70 N7        30.05S
BELLAIRE       CLEAR     51  46  82 CALM      30.05S
CADILLAC       PTCLDY    49  47  90 CALM      30.04S
CHARLEVOIX     PTCLDY    56  46  70 N8        30.07S
FRANKFORT      PTCLDY    59  53  80 N5        30.06R
GAYLORD        CLEAR     50  44  80 CALM      30.04S
GRAYLING       CLEAR     46  44  93 CALM      30.05R
HARBOR SPRINGS CLEAR     48  46  91 CALM      30.04S
HOUGHTON LAKE  CLEAR     51  47  86 N3        30.04R
MANISTEE       CLOUDY    51  50  96 E3        30.05R
OSCODA         CLEAR     51  48  88 W5        30.01R
PELLSTON       CLEAR     49  45  86 NW5       30.05R
ROGERS CITY    CLEAR     55  47  74 NW7       30.03R
TRAVERSE CITY  CLOUDY    60  48  64 N9        30.04R
$$
MIZ007>008-015-240500-
EASTERN UPPER MICHIGAN

CITY           SKY/WX    TMP DP  RH WIND       PRES   REMARKS
MACKINAC ISLAN CLOUDY    53  47  79 NW9       30.03S
NEWBERRY       CLEAR     46  46  97 NW6       30.04S
S. S. MARIE    CLOUDY    57  50  77 NW6       30.02R
MUNISING         N/A     58  51  78 N14       30.06R
$$
MIZ004>006-011>014-085-240500-
CENTRAL UPPER MICHIGAN

CITY           SKY/WX    TMP DP  RH WIND       PRES   REMARKS
MANISTIQUE     CLEAR     43  38  81 NW6       30.06S
SAWYER-GWINN     N/A    N/A N/A N/A MISG        N/A
$$
MIZ001>003-009>011-084-240500-
WESTERN UPPER MICHIGAN

CITY           SKY/WX    TMP DP  RH WIND       PRES   REMARKS
IRON MOUNTAIN  PTCLDY    46  38  73 N6        30.07S
HOUGHTON       CLEAR     43  40  89 NW3       30.08S
COPPER HARBOR    N/A     51  45  79 W6        30.07S
$$

ABBREVIATIONS USED IN REMARKS
   TC - TEMPERATURE IN CELSIUS
  WCI - WIND CHILL INDEX
   HX - HEAT INDEX
  VSB - VISIBILITY





USA.gov is the U.S. government's official web portal to all federal, state and local government web resources and services.